User: anonymous   Login
Location: Asni�res
(49.1337°N, 2.3555°E)
Time: 11:05:29
(UTC+00:00)
Language:

Cosmos 1656 - Orbit

View from above orbital plane
View from above orbital plane
View from above satellite
View from above satellite

Ground track
Ground track

The orbit data is extracted from the following two-line orbital elements,

1 15755U 85042A   22018.16833370  .00000053  00000-0  46732-4 0  9990
2 15755  71.1120  72.0365 0036756 324.7095  35.1598 14.20479105898680
Epoch (UTC): 18 January 2022 04:02:24
Eccentricity: 0.0036756
inclination: 71.1120°
perigee height: 797 km
apogee height: 850 km
right ascension of ascending node: 72.0365°
argument of perigee: 324.7095°
revolutions per day: 14.20479105
mean anomaly at epoch: 35.1598°
orbit number at epoch: 89868

The dashed part of the orbit path shows where the satellite is in the earth's shadow,  

DLR